Weather Service Report


385 
ASUS44 KMEG 282210
RWRMEG
MEMPHIS CWA HOURLY WEATHER ROUNDUP
NATIONAL WEATHER SERVICE MEMPHIS TN
500 PM CDT WED SEP 28 2016

...WEST TENNESSEE...
  
CITY           SKY/WX    TMP DP  RH WIND       PRES   REMARKS
MEMPHIS INTL   MOSUNNY   87  54  32 NW15G24   29.88R                  
NWS MEMPHIS      N/A     86 N/A N/A MISG        N/A                   
JACKSON        PTSUNNY  N/A N/A N/A W8        29.89R                  
BOLIVAR        PTSUNNY   84  50  30 SW8       29.87S                  
LEXINGTON      PTSUNNY   79  54  41 N10       29.88R                  
DYERSBURG      MOSUNNY  N/A N/A N/A MISG        N/A                   
UNION CITY     MOSUNNY   73  52  46 N16       29.93R                  
PARIS          MOSUNNY   72  52  49 N16       29.92R                  
HUNTINGDON     CLOUDY    73  54  49 N7G14     29.90R                  


...EASTERN ARKANSAS...
  
CITY           SKY/WX    TMP DP  RH WIND       PRES   REMARKS
JONESBORO      SUNNY     83  50  31 N12G17    29.92R                  
WEST MEMPHIS   SUNNY     86  52  30 NW8       29.88R                  
BATESVILLE     MOSUNNY   81  54  39 NW6       29.95R                  
NEWPORT        SUNNY     82  56  40 N16       29.93R                  
WALNUT RIDGE   SUNNY     79  45  29 NW20      29.95R                  
BLYTHEVILLE    MOSUNNY   83  53  35 N16G24    29.92R                  
SEARCY         MOSUNNY   85  58  39 N12G20    29.93R                  
STUTTGART      SUNNY     90  55  31 W14       29.91R                  
PINE BLUFF     SUNNY     86  55  34 W13G22    29.91S                  
MONTICELLO     SUNNY     86  53  32 SW9       29.93S                  


...NORTH MISSISSIPPI...
  
CITY           SKY/WX    TMP DP  RH WIND       PRES   REMARKS
TUPELO         SUNNY     87  44  22 SW10      29.89S                  
OXFORD         SUNNY     86  45  23 SW12G17   29.91R                  
BATESVILLE     SUNNY     88  43  20 SW15G21   29.90R                  
OLIVE BRANCH   MOSUNNY  N/A N/A N/A W12G23    29.87R                  
TUNICA         SUNNY     88  50  27 SW14      29.89R                  
CLARKSDALE     SUNNY     88  50  27 SW12G18   29.90R                  
CORINTH        SUNNY     86  45  23 W13G20    29.87R                  
GREENWOOD      SUNNY     86  47  25 VRB5      29.91F                  
COLUMBUS       SUNNY     87  47  24 W8        29.90S                  
STARKVILLE     SUNNY     86  45  23 SW6       29.92S                  
GOLDEN TRIANGL SUNNY     88  43  20 SW12      29.91S                  


...SOUTHEAST MISSOURI...
  
CITY           SKY/WX    TMP DP  RH WIND       PRES   REMARKS
KENNETT        MOSUNNY   79  45  29 N14G21    29.92R                  
WEST PLAINS    SUNNY     72  45  37 N9        30.05R                  
POPLAR BLUFF   SUNNY     74  49  41 N14       29.97R                  
CAPE GIRARDEAU MOSUNNY   69  46  43 N16       29.99R                  


...NORTHWEST ALABAMA...
  
CITY           SKY/WX    TMP DP  RH WIND       PRES   REMARKS
MUSCLE SHOALS  SUNNY     85  42  22 W13       29.90R                  


...MIDDLE TENNESSEE...
  
CITY           SKY/WX    TMP DP  RH WIND       PRES   REMARKS
NASHVILLE      CLOUDY    78  49  35 N21G26    29.88R                  
CLARKSVILLE    CLOUDY    72  51  47 N17G24    29.91R                  
COLUMBIA       MOSUNNY   81  48  32 SW9       29.86R                  


...WESTERN KENTUCKY...
  
CITY           SKY/WX    TMP DP  RH WIND       PRES   REMARKS
PADUCAH        MOSUNNY   71  46  40 N15G23    29.96R                  
FORT CAMPBELL  CLOUDY    70  51  49 NW13G21   29.91R                  


...CENTRAL ARKANSAS...
  
CITY           SKY/WX    TMP DP  RH WIND       PRES   REMARKS
LITTLE ROCK    MOSUNNY   90  53  28 NW18G26   29.90R                  


SKY/WX REPORTED AS FAIR MEANS FEW OR NO CLOUDS BELOW
12 THOUSAND FEET.

  


387 
ASUS44 KMEG 282210
RWRTN 
TENNESSEE HOURLY STATE WEATHER ROUNDUP
NATIONAL WEATHER SERVICE MEMPHIS TN
500 PM CDT WED SEP 28 2016

TNZ002-004-019-021-049-052-054-088>092-282300-
WEST TENNESSEE
  
CITY           SKY/WX    TMP DP  RH WIND       PRES   REMARKS
MEMPHIS INTL   MOSUNNY   87  54  32 NW15G24   29.88R                  
NWS MEMPHIS      N/A     86 N/A N/A MISG        N/A                   
JACKSON        PTSUNNY  N/A N/A N/A W8        29.89R                  
DYERSBURG      MOSUNNY  N/A N/A N/A MISG        N/A                   
UNION CITY     MOSUNNY   73  52  46 N16       29.93R                  
PARIS          MOSUNNY   72  52  49 N16       29.92R                  
HUNTINGDON     CLOUDY    73  54  49 N7G14     29.90R                  
LEXINGTON      PTSUNNY   79  54  41 N10       29.88R                  
$$

TNZ008-025-027-028-033-062-065-066-282300-
NORTH MIDDLE TENNESSEE
  
CITY           SKY/WX    TMP DP  RH WIND       PRES   REMARKS
NASHVILLE      CLOUDY    78  49  35 N21G26    29.88R                  
PORTLAND       CLOUDY    63  57  82 N8        29.91R                  
CLARKSVILLE    CLOUDY    72  51  47 N17G24    29.91R                  
SMYRNA         CLOUDY    80  48  32 W13       29.87R                  
COOKEVILLE     MOSUNNY   81  48  32 SW10      29.87S                  
GALLATIN       CLOUDY    72  55  56 NW13G22   29.91R                  
CROSSVILLE     SUNNY     76  42  29 W12G17    29.92S                  
$$

TNZ061-075-076-078-094-096-097-282300-
SOUTH MIDDLE TENNESSEE
  
CITY           SKY/WX    TMP DP  RH WIND       PRES   REMARKS
FAYETTEVILLE   SUNNY     82  45  26 SW9       29.90R                  
TULLAHOMA      SUNNY     81  39  22 SW10      29.91S                  
WINCHESTER     SUNNY     82  43  24 W8        29.90S                  
MCMINNVILLE    SUNNY     82  48  30 SW12      29.89S                  
COLUMBIA       MOSUNNY   81  48  32 SW9       29.86R                  
SHELBYVILLE    SUNNY     84  48  28 S13       29.89S                  
$$

TNZ017-018-042-046-047-282300-
NORTHEAST TENNESSEE
  
CITY           SKY/WX    TMP DP  RH WIND       PRES   REMARKS
TRI CITIES     MOSUNNY   79  43  27 SW8       29.89S                  
ELIZABETHTON   SUNNY     79  52  38 W7        29.89S                  
$$

TNZ012-013-036-069-073-074-282300-
CENTRAL EAST TENNESSEE
  
CITY           SKY/WX    TMP DP  RH WIND       PRES   REMARKS
KNOXVILLE      MOSUNNY   80  42  25 SW14      29.88F                  
OAK RIDGE      SUNNY     81  44  27 VRB5      29.89F                  
DOWNTOWN KNOXV SUNNY     82  45  26 W10G17    29.87F                  
GATLINBURG     SUNNY     82  41  23 W9        29.88S                  
MORRISTOWN     SUNNY     79  43  27 W9G17     29.89S                  
JACKSBORO      SUNNY     79  46  31 SW8G17    29.90S                  
$$

TNZ083-085-099-282300-
SOUTHEAST TENNESSEE
  
CITY           SKY/WX    TMP DP  RH WIND       PRES   REMARKS
CHATTANOOGA    MOSUNNY   84  42  22 W7        29.89F                  
$$

SKY/WX REPORTED AS FAIR MEANS FEW OR NO CLOUDS BELOW
12 THOUSAND FEET.

  

Return to Home page


Western Regional Climate Center, wrcc@dri.edu